Regional Weather Roundup
Issued by NWS

Home | Current Version | Previous Version | Graphics & Text | Print | Product List | Glossary On
Versions: 1 2 3 4 5 6 7 8 9 10 11 12 13 14 15 16 17 18 19 20 21 22 23 24 25 26 27 28 29 30 31 32 33 34 35 36 37 38 39 40 41 42 43 44 45 46 47 48 49 50
000
ASUS43 KMKX 250800
RWRWI

WISCONSIN REGIONAL WEATHER ROUNDUP
NATIONAL WEATHER SERVICE MILWAUKEE/SULLIVAN WI
200 AM CST THU DEC 25 2014

NOTE: "FAIR" INDICATES FEW OR NO CLOUDS BELOW 12,000 FEET WITH NO
SIGNIFICANT WEATHER AND/OR OBSTRUCTIONS TO VISIBILITY.

WIZ001-002-006>008-014>016-023>028-250900-
NORTHWEST WISCONSIN

CITY           SKY/WX    TMP DP  RH WIND       PRES   REMARKS
SUPERIOR ARPT  CLOUDY    33  29  86 SW9       29.53R WCI  25
ASHLAND        CLOUDY    32  29  88 SW8       29.53R WCI  25
HAYWARD        CLOUDY    32  27  81 W10G18    29.54R WCI  24
SIREN          CLOUDY    31  29  89 W13       29.57R WCI  22
CUMBERLAND     CLOUDY    30  28  93 SW13      29.56R WCI  20
RICE LAKE      CLOUDY    32  29  87 SW10G16   29.59R WCI  24
CHETEK         CLOUDY    32  29  89 SW6       29.57R WCI  26
LADYSMITH      CLOUDY    32  29  88 SW5       29.56S WCI  28
EAU CLAIRE     NOT AVBL
MENOMONIE      CLOUDY    32  29  88 SW9       29.60S WCI  25
NEW RICHMOND   CLOUDY    31  29  94 SW10      29.59R WCI  22
OSCEOLA        CLOUDY    32  32 100 SW8       29.61R WCI  25
$$

WIZ003>005-009-010-017-018-250900-
NORTH CENTRAL WISCONSIN

CITY           SKY/WX    TMP DP  RH WIND       PRES   REMARKS
MANITOWISH WTR CLOUDY    30  30 100 W8        29.49S WCI  22
ARBOR VITAE    CLOUDY    32  30  93 W9        29.50S WCI  24
WOODRUFF       CLOUDY    32  30  93 W9        29.50S WCI  24
RHINELANDER    CLOUDY    30  27  88 W14       29.52R WCI  19
EAGLE RIVER    CLOUDY    30  30  98 W9        29.49R WCI  22
LAND O LAKES   CLOUDY    31  29  94 W6        29.49R WCI  25
PHILLIPS       CLOUDY    30  27  88 W7        29.53R WCI  23
TOMAHAWK       CLOUDY    30  28  90 W6        29.53S WCI  24
MEDFORD        CLOUDY    31  27  84 SW6       29.55S WCI  25
MERRILL        CLOUDY    30  28  91 W7        29.55R WCI  24
$$

WIZ029-030-035-036-043>047-250900-
CENTRAL WISCONSIN

CITY           SKY/WX    TMP DP  RH WIND       PRES   REMARKS
WAUSAU         CLEAR     30  27  88 W8        29.56R WCI  22
MOSINEE        PTCLDY    30  30 100 W9        29.58R WCI  22
MARSHFIELD     CLOUDY    33  28  81 SW9       29.59R WCI  25
STEVENS POINT  PTCLDY    29  27  91 W6        29.59R WCI  23
WAUPACA        CLEAR     33  30  88 W7        29.60R WCI  27
WAUTOMA        NOT AVBL
WISC RAPIDS    CLOUDY    33  27  78 W6        29.62R WCI  28
CAMP DOUGLAS   NOT AVBL
$$

WIZ011>013-019>022-031-037>040-048>050-250900-
NORTHEAST WISCONSIN

CITY           SKY/WX    TMP DP  RH WIND       PRES   REMARKS
ANTIGO         CLOUDY    30  28  94 W10       29.53R WCI  21
SHAWANO        CLOUDY    34  30  85 W6        29.57R WCI  29
OCONTO         PTCLDY    31  30  97 W5        29.56R WCI  26
STURGEON BAY   CLOUDY    34  28  80 W10       29.57R WCI  26
GREEN BAY      PTCLDY    34  30  85 W12       29.59R WCI  25
MANITOWOC      NOT AVBL
APPLETON       PTCLDY    32  32 100 W13       29.59R WCI  22
CLINTONVILLE   PTCLDY    32  30  93 W6        29.59R WCI  26
OSHKOSH        CLOUDY    34  30  85 W8        29.62R WCI  27
$$

WIZ032>034-041-042-053>061-250900-
SOUTHWEST WISCONSIN

CITY           SKY/WX    TMP DP  RH WIND       PRES   REMARKS
LA CROSSE      CLOUDY    34  28  79 SW9       29.67R WCI  27
SPARTA         CLOUDY    33  29  85 W7        29.65R WCI  27
VIROQUA        CLOUDY    31  31 100 SW15      29.64R WCI  20
BOSCOBEL       CLOUDY    34  28  79 SW7       29.70R WCI  28
PRAIRIE DU CHI CLOUDY    33  28  80 SW10G18   29.70R WCI  25
PLATTEVILLE    CLOUDY    32  29  90 W13       29.70R WCI  22
$$

WIZ056-057-062-063-064-067-068-250900-
SOUTH CENTRAL WISCONSIN

CITY           SKY/WX    TMP DP  RH WIND       PRES   REMARKS
REEDSBURG      CLOUDY    33  29  86 W8        29.65R WCI  26
BARABOO/DELLS  CLOUDY    33  29  85 W10       29.64R WCI  25
LONE ROCK      NOT AVBL
MINERAL POINT  CLOUDY    34  32  93 W13G20    29.68R WCI  25
MADISON        CLOUDY    34  27  75 W8        29.67R WCI  27
MIDDLETON      CLOUDY    35  31  85 W13       29.66R WCI  26
WATERTOWN      CLOUDY    33  32  96 W8        29.65R WCI  26
MONROE         CLOUDY    32  30  93 W17       29.68R WCI  21
JANESVILLE     CLOUDY    36  30  80 W10G16    29.68R WCI  28
$$

WIZ051-052-058>065-066-070>072-250900-
SOUTHEAST WISCONSIN

CITY           SKY/WX    TMP DP  RH WIND       PRES   REMARKS
MILWAUKEE      MOCLDY    37  29  72 W15G23    29.65R WCI  28
WAUKESHA       CLOUDY    32  30  93 W16       29.65R WCI  21
MILWAUKEE/TIMM CLOUDY    34  30  86 W13G21    29.64R WCI  25
RACINE         CLOUDY    36  30  79 W7G17     29.68R WCI  30
BURLINGTON     CLOUDY    33  31  92 W12       29.67R WCI  25
KENOSHA        CLOUDY    36  32  85 W14       29.67R WCI  27
FOND DU LAC    CLOUDY    34  30  85 W8        29.63R WCI  27
SHEBOYGAN      CLOUDY    34  30  85 W14G21    29.61R WCI  25
WEST BEND      CLOUDY    34  30  86 W10G18    29.62R WCI  26
JUNEAU         CLOUDY    33  30  89 W8G16     29.64R WCI  26
$$

LSZ147-162-250900-
LAKE SUPERIOR

STATION/POSITION TIME  TEMP    WIND        PRES    WAVE
                       AIR SEA DIR/SP/G            HT/PER
                 (UTC) (F)     (DEG/KT/KT) (MB)    (FT/S)
DEVILS ISLAND    0700   34     240/ 17/ 20  999.4S
PORT WING        0700   33     210/  5/  8  999.7F
SAXON HARBOR     0700   34      CALM  /  3  999.7S
$$

LMZ867-665-643>646-250900-
LAKE MICHIGAN

STATION/POSITION TIME  TEMP    WIND        PRES    WAVE
                       AIR SEA DIR/SP/G            HT/PER
                 (UTC) (F)     (DEG/KT/KT) (MB)    (FT/S)
CHAMBERS ISLAND  0700   34     230/  7/ 11  999.3R
NORTHPORT PIER   0700   34     280/  7/ 10  999.0R
SISTER BAY       0713          300/ 17/ 19   N/A
ALGOMA LAKESHORE 0700          260/  9/ 14   N/A
KEWAUNEE LAKESHO 0700   34     280/ 11/ 16  999.5R
SHEBOYGAN LAKESH 0700   35 37  280/ 16/ 20 1001.9R
PORT WASHINGTON  0740   36     280/ 12/ 18 1004.1R
MILWAUKEE LAKESH 0700   36     270/ 13/ 17   N/A
KENOSHA   LAKESH 0700   36     270/ 11/ 17 1003.7R
$$

TC  - TEMPERATURE IN CELSIUS
VSB - VISIBILITY IN STATUTE MILES
WCI - WIND CHILL INDEX
HX  - HEAT INDEX



USA.gov is the U.S. government's official web portal to all federal, state and local government web resources and services.